Погода в Мензелинске

Погода в Мензелинске : погода сейчас, прогноз погоды и архив. Всё, что Вы хотите узнать о погоде в Мензелинске!

Поиск расширенной информации на нашем сайте:

Другие новости

Новости СМИ2

Главная страница сайта

Новости сайта

03.07.2017

Напоминаем, что на нашем специализированном сайте Метеоцентр.Азия вы можете получить высокодетализированные автоматические прогнозы погоды по пунктам России, СНГ и мира в авиационном формате (включающие направление и скорость ветра, видимость, явления погоды, количество и форму облачности, нижнюю и верхнюю границу облачности).

Рекомендуем: Tdci i масло mobil 5w30 mobil-1.com.ua.

Погода в Мензелинске - сегодня

Время (UTC), дата Ветер
(°,м/с) 
Видим.   Явления Облачность Т
(°С)
Тd
(°С)
f(%) Тe
(°С)
Pmin
(гПа)
dP
(гПа)
Po
(мм)
O2
(г/м3)
Тmin Tmax R s Состояние
почвы
06 11.10.18 330 (СЗ) 7-12{15}  10 км    9/9 600 м 
[Sc]
+7.5 +0.6 62 +5  1009.4  747  293  +7.3         
12 11.10.18 330 (СЗ) 6-10{17}  10 км  в посл. час ливневой дождь  9/9 600 м кучево-дожд. 
[Cb cap]
+5.9 +1.9 75 +4  1012.7  1.6  749  295           
18 11.10.18 360 (С) 7-11{15}  10 км    8/5 600 м верхняя 
[Sc|Ci fib]
+4.8 -1.3 65 +2  1016.7  1.7  752  298           
00 12.10.18 350 (С) 7-13{13}  10 км    10/0 средняя 
[Ac As]
+3.8 -2.4 64 +1  1018.9  1.1  754  300           
06 12.10.18 320 (СЗ) 8-11{13}  10 км    1/1 600 м 
[Sc diur, vesp]
+4 -2.4 63 +1  1021.3  0.7  756  300  +2.2         
12 12.10.18 330 (СЗ) 7-11{14}  10 км    6/0 
[Sc]
+5.8 -4.5 47 +3  1019.4  -0.9  754  298           
18 12.10.18 330 (СЗ) 5-10{15}  10 км    ясно 
+2.9 -3.8 61 1019.7  0.3  754  301           
21 12.10.18 320 (СЗ) 10 км    ясно 
+1 -3.1 74 -2  1019.3  -0.4  754  303           
00 13.10.18 320 (СЗ) 10 км    ясно 
-1.2 -3.8 82 -4  1019.2  -0.3  754  306           
06 13.10.18 290 (З) 10 км    9/5 600 м средняя 
[Sc|Ac und]
+2.1 -2 74 1019.7  0.1  754  302           
09 13.10.18 330 (СЗ) 6{11}  10 км    5/5 1000 м 
[Cu Sc]
+7.4 -1.7 52 +5  1018.7  -0.7  754  296           
12 13.10.18 330 (СЗ) 6-10{12}  10 км    8/8 600 м 
[Sc]
+6.5 -2.5 53 +4  1018.8  0.1  754  297           
18 13.10.18 350 (С) 10 км    10/8 600 м средняя 
[Sc|Ac As]
+2.9 -3.2 64 1020.1  0.3  755  301           
21 13.10.18 360 (С) 10 км    10/8 600 м средняя 
[Sc|Ac As]
+2.2 -5.9 55 1020.5  0.3  755  302           
00 14.10.18 350 (С) 10 км    10/6 600 м средняя 
[Sc|Ac As]
+1.9 -6.1 55 1020.6  0.1  755  303           
06 14.10.18 330 (СЗ) 10 км    8/8 600 м 
[Sc]
+2.9 -5.3 55 1021.2  0.3  755  302           
09 14.10.18 340 (С) 5{11}  10 км    9/9 600 м 
[Sc diur, vesp]
+3.9 -4.6 54 +2  1021.3  0.1  756  301           
12 14.10.18 010 (С) 5{10}  10 км    4/4 600 м 
[Cu hum]
+3.4 -5 54 +1  1021.3  756  301           
18 14.10.18 330 (СЗ) 10 км    10/8 600 м средняя 
[Sc|Ac As]
+1.4 -4.6 64 +2  1022.5  0.2  756  304           
21 14.10.18 280 (З) 10 км    10/10 600 м 
[Sc]
+0.3 -3.8 74 +1  1022.5  756  305           
00 15.10.18 290 (З) 10 км    8/4 600 м средняя 
[Sc|Ac trans]
-1 -3.9 81 1022.8  0.2  757  306           
06 15.10.18 220 (ЮЗ) 10 км    10/0 средняя 
[Ac As]
+1.2 -2.9 74 +2  1022.5  756  304  -1.9         
09 15.10.18 230 (ЮЗ) 10 км    10/0 средняя 
[Ac As]
+3.8 -4.2 56 +5  1022.5  0.1  756  301           
12 15.10.18 тихо ()   10 км    10/0 средняя 
[Ac As]
+3.9 -4.1 56 +4  1022.9  0.3  757  301           
18 15.10.18 210 (ЮЗ) 10 км    10/8 600 м средняя 
[Sc|Ac As]
+3.3 -2.9 64 +3  1021.7  -0.6  756  301           
Время (UTC), дата Ветер
(°,м/с) 
Видим.   Явления Облачность Т
(°С)
Тd
(°С)
f(%) Тe
(°С)
Pmin
(гПа)
dP
(гПа)
Po
(мм)
O2
(г/м3)
Тmin Tmax R s Состояние
почвы

Для получения пояснительной информации подведите курсор к названию столбца.

ПОГОДА в Мензелинске - архив

Всё, что Вы хотите узнать о погоде в Мензелинске - удобно и подробно!

Выберите нужную дату (начиная с 1 января 2015* года) и нажмите кнопку "Найти".
Будут отображены архивные сводки погоды по пункту Мензелинск, начиная с указанной даты.


Отображать данные в формате CSV (для использования в таблицах Excel)


Внимание! Наш архив погоды предназначен исключительно для личного некоммерческого использования в познавательных целях. Если Вам необходимы официальные справки о состоянии погоды (для производственных, юридических, коммерческих и т.п. целей), обращайтесь в органы Росгидромета.

*Примечание: данная дата относится к архиву по метеостанциям СССР (Россия, СНГ, Балтия).
Архив по метеостанциям Зарубежной Европы и Азии (кроме Китая) хранится 10 дней, по другим регионам земного шара (Китай, Африка, Америка, Австралия, Океания) - 1 день.

Мензелинск - район местоположения метеостанции


Название, широта, долгота, высота метеостанции:
Мензелинск 55.7°ш. 53.1°д. 112 м над ур. моря [Российская Федерация]

Дополнительная информация

В oтличие oт бoльшинства пoгoдных сайтoв мы публикуем пoдрoбную метеoинфoрмацию в детальнoм прoфессиoнальнoм фoрмате.

Характеристики температуры и влажнoсти вoздуха измеряются на высoте 2 м в тени вдали oт зданий и деревьев.
Скoрoсть ветра измеряется на высoте 10 м (на урoвне рoста челoвека скoрoсть ветра ниже в 1.5-2 раза). Если метеoстанция нахoдится в гoрoде или в лесу, тo скoрoсть ветра занижена на 2-4 м/с пo сравнению с oткрытым местoм. Скoрoсть ветра над акватoриями крупных рек и oзёр, а также на вершинах хoлмoв на 2-5 м/с выше, чем в oбычных услoвиях.
Атмoсфернoе давление в разных тoчках местнoсти мoжет значительнo oтличаться oт давления на метеoстанции, в зависимoсти oт услoвий рельефа (при пoдъёме на 10 м давление пoнижается примернo на 1 мм рт.ст.).